Location: Unspecified
(0.0000°N, 0.0000°E)
Time: 14:52:40
(UTC+00:00)

Vanguard 3 - All Passes

Search period start: 27 July 2017 00:00
Search period end: 06 August 2017 00:00
Orbit: 508 x 3265 km, 33.3° (Epoch: 26 July)

Date Brightness Start Highest point End Pass type
(mag) Time Alt. Az. Time Alt. Az. Time Alt. Az.
27 Jul - 01:58:28 10° SW 02:09:14 66° SSE 02:15:09 10° ENE visible
27 Jul - 04:16:22 10° W 04:20:49 19° NW 04:24:10 10° N visible
27 Jul - 13:10:11 10° NW 13:18:40 51° NE 13:33:25 10° ESE daylight
27 Jul - 15:21:43 10° WNW 15:33:28 61° SSW 15:52:09 10° SE daylight
27 Jul - 17:38:49 10° WSW 17:52:20 29° SSW 18:08:15 10° SSE daylight
27 Jul - 20:03:38 10° SW 20:14:52 17° S 20:25:11 10° SSE visible
27 Jul - 22:25:44 10° SSW 22:36:55 20° SSE 22:45:20 10° SE visible
28 Jul - 00:42:07 10° SW 00:54:26 41° SSE 01:01:37 10° E night (unlit)
28 Jul - 02:58:48 10° WSW 03:07:39 50° NW 03:12:47 10° NE visible
28 Jul - 11:58:20 10° NNW 12:04:32 26° NE 12:14:03 10° E daylight
28 Jul - 14:07:50 10° NW 14:17:36 87° SW 14:34:54 10° SE daylight
28 Jul - 16:21:57 10° W 16:34:29 38° SSW 16:51:52 10° SE daylight
28 Jul - 18:43:12 10° SW 18:55:33 20° SSW 19:08:21 10° SSE visible
28 Jul - 21:07:35 10° SSW 21:18:48 18° S 21:28:12 10° SE visible
28 Jul - 23:25:32 10° SSW 23:38:37 30° SSE 23:47:06 10° E visible
29 Jul - 01:41:53 10° SW 01:53:52 83° SE 02:00:18 10° ENE night (unlit)
29 Jul - 04:01:23 10° WNW 04:05:25 16° NW 04:08:35 10° N visible
29 Jul - 12:54:56 10° NW 13:02:48 59° NE 13:16:59 10° ESE daylight
29 Jul - 15:06:45 10° WNW 15:17:36 52° SSW 15:35:07 10° SE daylight
29 Jul - 17:24:17 10° WSW 17:36:43 25° SSW 17:51:36 10° SSE daylight
29 Jul - 19:48:17 10° SW 19:59:41 17° S 20:10:19 10° SE visible
29 Jul - 22:08:33 10° SSW 22:21:41 24° SSE 22:31:20 10° ESE visible
30 Jul - 00:25:06 10° SW 00:39:06 52° SSE 00:46:59 10° ENE night (unlit)
30 Jul - 02:42:51 10° WSW 02:52:09 41° NW 02:57:38 10° NNE visible
30 Jul - 11:42:57 10° NNW 11:48:53 30° NE 11:58:17 10° E daylight
30 Jul - 13:52:47 10° WNW 14:01:46 75° SW 14:18:01 10° SE daylight
30 Jul - 16:07:18 10° W 16:18:47 32° SSW 16:34:51 10° SE daylight
30 Jul - 18:28:39 10° SW 18:40:14 19° S 18:52:26 10° SSE visible
30 Jul - 20:51:00 10° SSW 21:03:36 20° S 21:14:07 10° SE visible
30 Jul - 23:08:19 10° SW 23:23:15 37° SSE 23:32:40 10° E visible
31 Jul - 01:25:19 10° WSW 01:38:22 82° NW 01:45:20 10° NE night (unlit)
31 Jul - 03:46:33 10° WNW 03:50:01 13° NW 03:52:51 10° NNW visible
31 Jul - 10:33:33 10° NNE 10:35:16 11° NE 10:37:10 10° ENE daylight
31 Jul - 12:39:46 10° NW 12:47:03 69° NE 13:00:30 10° ESE daylight
31 Jul - 14:51:57 10° W 15:01:55 44° SSW 15:18:01 10° SE daylight
31 Jul - 17:09:57 10° WSW 17:21:15 22° SSW 17:34:54 10° SSE daylight
31 Jul - 19:32:45 10° SSW 19:44:30 18° S 19:55:37 10° SE visible
31 Jul - 21:51:25 10° SSW 22:06:18 28° SSE 22:17:05 10° ESE visible
01 Aug - 00:08:08 10° SW 00:23:35 64° SSE 00:32:10 10° ENE night (unlit)
01 Aug - 02:26:56 10° WSW 02:36:34 35° NW 02:42:25 10° NNE visible
01 Aug - 11:27:40 10° NNW 11:33:16 34° NE 11:42:27 10° ESE daylight
01 Aug - 13:37:51 10° WNW 13:46:08 63° SSW 14:01:05 10° SE daylight
01 Aug - 15:52:52 10° WSW 16:03:17 27° SSW 16:17:45 10° SSE daylight
01 Aug - 18:14:05 10° SW 18:25:00 18° S 18:36:40 10° SSE visible
01 Aug - 20:34:22 10° SSW 20:48:15 22° SSE 20:59:54 10° ESE visible
01 Aug - 22:51:09 10° SW 23:07:42 45° SSE 23:18:02 10° E visible
02 Aug - 01:08:46 10° WSW 01:22:42 69° NW 01:30:16 10° NE night (unlit)
02 Aug - 03:32:00 10° WNW 03:34:36 12° NW 03:36:53 10° NNW visible
02 Aug - 10:17:23 10° NNE 10:19:52 13° NE 10:22:51 10° ENE daylight
02 Aug - 12:24:43 10° NW 12:31:26 82° NE 12:43:59 10° SE daylight
02 Aug - 14:37:21 10° W 14:46:26 36° SSW 15:00:51 10° SE daylight
02 Aug - 16:55:47 10° SW 17:05:57 19° S 17:18:13 10° SSE daylight
02 Aug - 19:17:02 10° SSW 19:29:15 19° S 19:41:00 10° SE visible
02 Aug - 21:34:22 10° SW 21:50:44 33° SSE 22:02:37 10° E visible
02 Aug - 23:51:11 10° SW 00:07:53 76° SE 00:17:13 10° ENE visible
03 Aug - 02:11:03 10° W 02:20:56 30° NW 02:27:06 10° NNE visible
03 Aug - 11:12:26 10° NNW 11:17:43 40° NE 11:26:34 10° ESE daylight
03 Aug - 13:23:05 10° WNW 13:30:40 51° SSW 13:44:08 10° SE daylight
03 Aug - 15:38:40 10° WSW 15:47:56 23° SSW 16:00:36 10° SSE daylight
03 Aug - 17:59:24 10° SW 18:09:49 17° S 18:21:06 10° SE daylight
03 Aug - 20:17:44 10° SSW 20:32:46 25° SSE 20:45:31 10° ESE visible
03 Aug - 22:34:05 10° SW 22:51:57 53° SSE 23:03:11 10° ENE visible
04 Aug - 00:52:16 10° WSW 01:06:55 59° NW 01:15:06 10° NE night (unlit)
04 Aug - 03:18:08 10° NW 03:19:14 10° NW 03:20:16 10° NNW visible
04 Aug - 10:01:34 10° N 10:04:29 15° NE 10:08:09 10° ENE daylight
04 Aug - 12:09:46 10° WNW 12:15:58 82° SW 12:27:27 10° SE daylight
04 Aug - 14:22:58 10° WSW 14:31:06 29° SSW 14:43:38 10° SSE daylight
04 Aug - 16:41:45 10° SW 16:50:46 17° S 17:01:36 10° SSE daylight
04 Aug - 19:01:10 10° SSW 19:13:55 20° SSE 19:26:25 10° SE visible
04 Aug - 21:17:23 10° SW 21:35:00 39° SSE 21:47:55 10° E visible
04 Aug - 23:34:19 10° SW 23:52:01 87° SE 00:02:08 10° NE visible
05 Aug - 01:55:15 10° W 02:05:15 27° NW 02:11:44 10° NNE visible
05 Aug - 10:57:17 10° NW 11:02:15 49° NE 11:10:41 10° ESE daylight
05 Aug - 13:08:28 10° W 13:15:22 40° SSW 13:27:09 10° SE daylight
05 Aug - 15:24:44 10° SW 15:32:45 19° SSW 15:43:21 10° SSE daylight
05 Aug - 17:44:34 10° SSW 17:54:39 17° S 18:05:43 10° SE daylight
05 Aug - 20:01:07 10° SSW 20:17:07 29° SSE 20:30:56 10° ESE visible
05 Aug - 22:17:05 10° SW 22:36:02 62° SSE 22:48:11 10° ENE visible
